contact:dominique.lefevre@mio.osupytheas.fr, maurice.libes@osupytheas.fr
Project:EMSO Ligure-ouest http://www.emso-fr.org/EMSO-France
Sensor Aquadopp, line 13 Serial AQD14315 
DOI : "https://doi.org/10.17882/74513; https://doi.org/10.17882/83244" 
Title:EMSO Ligure Ouest : Data ligne ALBATROSS capteur AQUADOPP - deploiement 2021
Id,Date,Profondeur,Latitude,Longitude,X_East,Y_North,Z_Up,Amplitude_X,Amplitude_Y,Amplitude_Z,Batterie,SoundSpeed,Heading,Pitch,Roll,Pressure,Temperature,Speed,Direction
, , m, degrees North, degrees East, m.s-1, m.s-1,m.s-1, 1, 1, 1, Volt, m.s-1, degree, degree, degree, dbar, degree_C, m.s-1, degree
07,2022-03-05T21:30:00,1500.0,42.79,6.0312,0.003,-0.008,0.001,56.0,56.0,55.0,12.2,1504.0,16.7,-0.1,-0.4,1472.511,13.11,0.008,159.4
07,2022-03-05T22:00:00,1500.0,42.79,6.0312,0.016,-0.008,0.003,56.0,57.0,56.0,12.2,1504.1,27.0,0.0,-0.3,1472.501,13.12,0.017,116.6
07,2022-03-05T22:30:00,1500.0,42.79,6.0312,0.011,-0.019,0.006,57.0,59.0,57.0,12.2,1504.1,63.1,0.2,-0.2,1472.506,13.12,0.021,149.9
07,2022-03-05T23:00:00,1500.0,42.79,6.0312,0.019,-0.006,0.01,56.0,57.0,58.0,12.2,1504.1,90.5,0.1,-0.1,1472.463,13.12,0.019,107.5
07,2022-03-05T23:30:00,1500.0,42.79,6.0312,0.012,-0.004,0.008,56.0,57.0,58.0,12.2,1504.1,113.0,0.1,-0.3,1472.444,13.12,0.012,108.4
07,2022-03-06T00:00:00,1500.0,42.79,6.0312,0.015,-0.009,-0.009,56.0,57.0,56.0,12.2,1504.1,141.7,-0.1,-0.1,1472.467,13.12,0.017,121.0
07,2022-03-06T00:30:00,1500.0,42.79,6.0312,0.011,-0.001,0.011,57.0,59.0,57.0,12.2,1504.1,150.7,-0.1,-0.4,1472.403,13.12,0.011,95.2
07,2022-03-06T01:00:00,1500.0,42.79,6.0312,0.008,0.001,-0.013,58.0,55.0,55.0,12.2,1504.1,153.0,0.0,-0.3,1472.423,13.12,0.008,82.9
07,2022-03-06T01:30:00,1500.0,42.79,6.0312,0.012,-0.006,-0.013,56.0,59.0,55.0,12.2,1504.1,163.4,0.0,-0.3,1472.386,13.12,0.013,116.6
07,2022-03-06T02:00:00,1500.0,42.79,6.0312,0.003,-0.002,-0.02,57.0,58.0,57.0,12.2,1504.1,167.6,-0.2,-0.4,1472.389,13.12,0.003,123.7
07,2022-03-06T02:30:00,1500.0,42.79,6.0312,0.015,0.006,-0.007,58.0,56.0,58.0,12.2,1504.1,165.4,-0.1,-0.1,1472.355,13.12,0.016,68.2
07,2022-03-06T03:00:00,1500.0,42.79,6.0312,0.027,0.0,-0.005,58.0,58.0,57.0,12.2,1504.1,171.2,-0.4,-0.3,1472.369,13.12,0.026,90.0
07,2022-03-06T03:30:00,1500.0,42.79,6.0312,0.024,-0.002,0.0,55.0,57.0,57.0,12.2,1504.1,176.9,0.3,0.0,1472.364,13.12,0.024,94.8
07,2022-03-06T04:00:00,1500.0,42.79,6.0312,0.027,-0.001,-0.004,57.0,59.0,58.0,12.2,1504.1,181.1,-0.5,-0.1,1472.331,13.12,0.027,92.1
07,2022-03-06T04:30:00,1500.0,42.79,6.0312,0.022,0.0,-0.012,57.0,58.0,58.0,12.2,1504.1,185.2,-0.1,-0.3,1472.367,13.12,0.022,90.0
07,2022-03-06T05:00:00,1500.0,42.79,6.0312,0.029,0.003,-0.005,56.0,57.0,57.0,12.2,1504.1,191.2,0.1,-0.1,1472.347,13.12,0.029,84.1
07,2022-03-06T05:30:00,1500.0,42.79,6.0312,0.028,-0.005,-0.005,58.0,58.0,56.0,12.2,1504.1,199.2,-0.4,-0.2,1472.372,13.12,0.028,100.1
07,2022-03-06T06:00:00,1500.0,42.79,6.0312,0.034,-0.005,0.011,57.0,57.0,57.0,12.2,1504.1,200.0,0.0,-0.3,1472.378,13.12,0.034,98.4
07,2022-03-06T06:30:00,1500.0,42.79,6.0312,0.035,-0.019,0.006,56.0,56.0,57.0,12.2,1504.0,210.2,0.4,-0.3,1472.429,13.11,0.039,118.5
07,2022-03-06T07:00:00,1500.0,42.79,6.0312,0.03,-0.022,0.007,57.0,58.0,55.0,12.2,1504.0,214.3,-0.2,-0.3,1472.494,13.11,0.037,126.3
07,2022-03-06T07:30:00,1500.0,42.79,6.0312,0.023,-0.027,-0.003,56.0,58.0,57.0,12.2,1504.0,207.7,-0.2,-0.1,1472.504,13.11,0.035,139.6
07,2022-03-06T08:00:00,1500.0,42.79,6.0312,0.03,-0.027,-0.005,56.0,57.0,56.0,12.2,1504.0,210.7,-0.6,-0.3,1472.572,13.11,0.04,132.0
07,2022-03-06T08:30:00,1500.0,42.79,6.0312,0.029,-0.026,0.009,57.0,56.0,58.0,12.2,1504.0,213.2,-0.7,-0.1,1472.555,13.11,0.038,131.9
07,2022-03-06T09:00:00,1500.0,42.79,6.0312,0.025,-0.038,0.0,57.0,59.0,56.0,12.2,1504.0,216.6,-0.3,-0.5,1472.589,13.11,0.045,146.7
07,2022-03-06T09:30:00,1500.0,42.79,6.0312,0.02,-0.029,0.007,57.0,58.0,58.0,12.2,1504.0,215.2,-0.3,-0.2,1472.6,13.11,0.035,145.4
07,2022-03-06T10:00:00,1500.0,42.79,6.0312,0.009,-0.044,-0.004,57.0,56.0,57.0,12.2,1504.0,214.3,-0.4,-0.2,1472.589,13.11,0.044,168.4
07,2022-03-06T10:30:00,1500.0,42.79,6.0312,0.001,-0.038,0.008,57.0,57.0,57.0,12.2,1504.0,217.4,0.5,-0.1,1472.584,13.11,0.038,178.5
07,2022-03-06T11:00:00,1500.0,42.79,6.0312,0.018,-0.041,-0.003,57.0,57.0,59.0,12.2,1504.0,221.8,0.1,-0.1,1472.555,13.11,0.044,156.3
07,2022-03-06T11:30:00,1500.0,42.79,6.0312,0.002,-0.043,0.001,58.0,58.0,57.0,12.2,1504.0,236.3,-0.4,-0.3,1472.559,13.11,0.043,177.3
07,2022-03-06T12:00:00,1500.0,42.79,6.0312,0.005,-0.026,0.007,56.0,58.0,60.0,12.2,1504.0,313.1,-0.3,-0.2,1472.571,13.11,0.026,169.1
07,2022-03-06T12:30:00,1500.0,42.79,6.0312,0.003,-0.033,0.004,57.0,57.0,58.0,12.2,1504.0,343.9,0.2,-0.3,1472.546,13.11,0.033,174.8
07,2022-03-06T13:00:00,1500.0,42.79,6.0312,0.0,-0.038,-0.018,57.0,58.0,58.0,12.2,1504.1,356.8,0.1,-0.4,1472.466,13.12,0.038,180.0
07,2022-03-06T13:30:00,1500.0,42.79,6.0312,-0.003,-0.025,-0.004,59.0,57.0,58.0,12.2,1504.1,15.1,-0.1,0.0,1472.477,13.12,0.025,186.8
07,2022-03-06T14:00:00,1500.0,42.79,6.0312,0.0,-0.034,-0.01,58.0,59.0,58.0,12.2,1504.1,22.3,-0.1,-0.1,1472.458,13.12,0.034,180.0
07,2022-03-06T14:30:00,1500.0,42.79,6.0312,-0.002,-0.025,0.002,58.0,59.0,59.0,12.2,1504.1,35.3,-0.1,-0.3,1472.419,13.12,0.025,184.6
07,2022-03-06T15:00:00,1500.0,42.79,6.0312,0.005,-0.033,0.0,58.0,60.0,58.0,12.2,1504.1,50.7,0.1,-0.1,1472.414,13.13,0.033,171.4
07,2022-03-06T15:30:00,1500.0,42.79,6.0312,0.0,-0.015,-0.002,57.0,57.0,56.0,12.2,1504.1,62.2,0.2,-0.1,1472.409,13.13,0.015,180.0
07,2022-03-06T16:00:00,1500.0,42.79,6.0312,0.005,-0.005,0.009,58.0,58.0,58.0,12.2,1504.1,79.4,0.0,-0.4,1472.408,13.12,0.007,135.0
07,2022-03-06T16:30:00,1500.0,42.79,6.0312,0.009,-0.004,-0.01,57.0,56.0,56.0,12.2,1504.1,100.9,0.1,0.0,1472.373,13.12,0.009,114.0
07,2022-03-06T17:00:00,1500.0,42.79,6.0312,0.012,-0.017,0.007,58.0,60.0,59.0,12.2,1504.1,113.9,0.1,-0.3,1472.374,13.12,0.02,144.8
07,2022-03-06T17:30:00,1500.0,42.79,6.0312,0.01,0.0,0.007,58.0,59.0,58.0,12.2,1504.0,128.1,0.0,-0.2,1472.418,13.11,0.01,90.0
07,2022-03-06T18:00:00,1500.0,42.79,6.0312,0.021,-0.008,-0.015,57.0,58.0,57.0,12.2,1504.0,139.6,0.0,-0.2,1472.449,13.11,0.022,110.9
07,2022-03-06T18:30:00,1500.0,42.79,6.0312,0.019,-0.006,0.005,58.0,57.0,57.0,12.2,1504.0,148.9,-0.2,-0.3,1472.447,13.11,0.019,107.5
07,2022-03-06T19:00:00,1500.0,42.79,6.0312,0.013,-0.012,-0.002,57.0,57.0,56.0,12.2,1504.0,153.5,-0.3,0.0,1472.478,13.11,0.017,132.7
07,2022-03-06T19:30:00,1500.0,42.79,6.0312,0.021,-0.006,0.0,57.0,58.0,58.0,12.2,1504.0,155.3,-0.1,-0.1,1472.497,13.11,0.021,105.9
07,2022-03-06T20:00:00,1500.0,42.79,6.0312,0.013,0.001,0.005,56.0,60.0,56.0,12.2,1504.0,165.7,0.1,-0.2,1472.529,13.11,0.013,85.6
07,2022-03-06T20:30:00,1500.0,42.79,6.0312,0.017,-0.001,0.001,59.0,57.0,56.0,12.2,1504.0,170.3,0.0,0.0,1472.564,13.11,0.017,93.4
07,2022-03-06T21:00:00,1500.0,42.79,6.0312,0.029,-0.006,-0.003,56.0,57.0,56.0,12.2,1504.0,170.2,-0.2,-0.2,1472.574,13.11,0.029,101.7
